Flag for China Weather past 2 weeks in Nanning, Guangxi, China

Now
88 °F

Scattered clouds.


Feels Like: 98 °F
Forecast: 75 / 92 °F
Wind: 3 mph from Southwest

Location: Nanning Airport

Current Time: Sep 2, 2014 at 3:24:36 PM

Latest Report: Sep 2, 2014 at 3:00 PM


Visibility: N/A

Pressure: 29.83 "Hg

Humidity: 66%

Dew point: 75 °F

Location of NanningLocation

Historic Weather in Nanning — Graph

°F

Nanning temperature yesterday

Maximum temperature yesterday: 88 °F (at 3:00 PM)
Minimum temperature yesterday: 77 °F (at 4:00 AM)
Average temperature yesterday: 80 °F

Past Weeks' High & Low Weather Summary

 TemperatureHumidityPressure
High93 °F (Aug 26, 4:00 PM)100% (Aug 23, 5:00 AM)29.95 "Hg (Aug 23, 5:00 AM)
Low73 °F (Aug 20, 3:00 AM)44% (Aug 31, 3:00 PM)29.68 "Hg (Aug 18, 4:00 PM)
Average81 °F81%29.81 "Hg
* Reported Aug 18 2:00 PM — Sep 2 2:00 PM, Nanning, Weather by CustomWeather, © 2014

Note: Actual official high and low records may vary slightly from our data, if they occured in-between our weather recording intervals... More about our weather records

Advertising

Nanning weather history for previous 24 hours

 ConditionsComfort  
Time TempWeatherWind HumidityBarometerVisibility
2:00 PM
Sep 2
86 °FScattered clouds.1 mph70%29.83 "HgN/A
1:00 PM84 °FScattered clouds.1 mph74%29.86 "HgN/A
12:00 PM77 °FSprinkles. Partly sunny.1 mph94%29.89 "HgN/A
11:00 AM82 °FScattered clouds.6 mph84%29.89 "HgN/A
10:00 AM82 °FScattered clouds.8 mph79%29.89 "HgN/A
9:00 AM81 °FScattered clouds.8 mph84%29.89 "HgN/A
8:00 AM77 °FScattered clouds.8 mph94%29.89 "HgN/A
7:00 AM77 °FScattered clouds.6 mph89%29.86 "Hg4 mi
6:00 AM77 °FPassing clouds.6 mph89%29.86 "HgN/A
5:00 AM77 °FPassing clouds.6 mph89%29.83 "HgN/A
4:00 AM77 °FPassing clouds.3 mph89%29.83 "HgN/A
3:00 AM77 °FPassing clouds.6 mph89%29.83 "HgN/A
2:00 AM77 °FPassing clouds.6 mph89%29.86 "HgN/A
1:00 AM77 °FPassing clouds.3 mph89%29.86 "HgN/A
12:00 AM77 °FPassing clouds.6 mph94%29.86 "HgN/A
11:00 PM
Sep 1
79 °FPassing clouds.3 mph84%29.86 "HgN/A
10:00 PM77 °FPassing clouds.1 mph89%29.83 "HgN/A
9:00 PM79 °FClear.6 mph84%29.83 "Hg10 mi
8:00 PM77 °FClear.3 mph89%29.80 "Hg10 mi
7:00 PM77 °FPassing clouds.3 mph83%29.80 "HgN/A
6:00 PM77 °FSprinkles. Passing clouds.6 mph83%29.77 "HgN/A
5:00 PM82 °FScattered clouds.13 mph70%29.74 "HgN/A
4:00 PM82 °FScattered clouds.6 mph79%29.77 "HgN/A
3:00 PM88 °FScattered clouds.13 mph66%29.74 "HgN/A
Weather by CustomWeather, © 2014

See weather overviewHow to use our weather pages